This is the latest recevied weather packets stored in our database for station/object EA5CLU-13. If no packets are shown the sender has not sent any weather packets the latest 10 day(s).
| Time | Temp. | Humidity | Pressure | Rain* | Wind** | Luminosity | Snow |
|---|---|---|---|---|---|---|---|
| 1787786238 | 21.67° C | - | 1014.6 hPa | 0 mm | - | - | - |
| 1787785938 | 21.67° C | - | 1014.4 hPa | 0 mm | - | - | - |
| 1787785639 | 21.67° C | - | 1014.4 hPa | 0 mm | - | - | - |
| 1787785339 | 21.67° C | - | 1014.4 hPa | 0 mm | - | - | - |
| 1787784439 | 22.22° C | - | 1014.3 hPa | 0 mm | - | - | - |
| 1787783838 | 22.22° C | - | 1014.3 hPa | 0 mm | - | - | - |
| 1787783538 | 22.22° C | - | 1014.3 hPa | 0 mm | - | - | - |
| 1787783238 | 22.22° C | - | 1014.1 hPa | 0 mm | - | - | - |
| 1787782937 | 22.78° C | - | 1014.5 hPa | 0 mm | - | - | - |
| 1787782639 | 22.78° C | - | 1014.7 hPa | 0 mm | - | - | - |
| 1787782038 | 23.33° C | - | 1014.4 hPa | 0 mm | - | - | - |
| 1787781738 | 23.33° C | - | 1014.3 hPa | 0 mm | - | - | - |
| 1787781438 | 23.89° C | - | 1014.1 hPa | 0 mm | - | - | - |
| 1787781137 | 24.44° C | - | 1014.1 hPa | 0 mm | - | - | - |
| 1787780539 | 24.44° C | - | 1014.1 hPa | 0 mm | - | - | - |
| 1787780238 | 24.44° C | - | 1014 hPa | 0 mm | - | - | - |
| 1787779938 | 25° C | - | 1014 hPa | 0 mm | - | - | - |
| 1787779338 | 24.44° C | - | 1014 hPa | 0 mm | - | - | - |
| 1787779037 | 23.89° C | - | 1014.1 hPa | 0 mm | - | - | - |
| 1787778439 | 23.89° C | - | 1014 hPa | 0 mm | - | - | - |
| 1787778139 | 23.89° C | - | 1014.1 hPa | 0 mm | - | - | - |
| 1787777538 | 24.44° C | - | 1014.1 hPa | 0 mm | - | - | - |
| 1787777238 | 24.44° C | - | 1014.1 hPa | 0 mm | - | - | - |
| 1787776937 | 24.44° C | - | 1014.1 hPa | 0 mm | - | - | - |
| 1787776339 | 25° C | - | 1013.9 hPa | 0 mm | - | - | - |
* Rain latest hour (hover to see other rain measurements)
** Current wind speed in m/s (hover to see current wind gust speed)